K9JM Weather Reports


Display with metric or nautical units.
time (UTC)temp
F
wind
direction
speed
MPH
gust
MPH
rain 1hr
in
rain 24hr
in
rain mn
in
humidity
%
barometer
mb
20260903104516 58 0.0 3.0 0.00 0.00 0.00 74 1016.1
20260903103016 58 0.0 3.0 0.00 0.00 0.00 74 1015.8
20260903101556 58 0.0 3.0 0.00 0.00 0.00 74 1016.0
20260903100016 58 113 1.0 4.0 0.00 0.00 0.00 75 1016.0
20260903094516 59 0.0 3.0 0.00 0.00 0.00 75 1016.1
20260903093036 59 135 1.0 4.0 0.00 0.00 0.00 74 1016.1
20260903091516 59 113 1.0 4.0 0.00 0.00 0.00 73 1016.2
20260903090016 59 0.0 4.0 0.00 0.00 0.00 73 1016.2
20260903084516 59 0.0 3.0 0.00 0.00 0.00 73 1016.1
20260903083016 59 113 1.0 3.0 0.00 0.00 0.00 74 1016.3
20260903081516 59 0.0 2.0 0.00 0.00 0.00 75 1016.4
20260903080016 60 0.0 1.0 0.00 0.00 0.00 74 1016.5
20260903074516 60 0.0 1.0 0.00 0.00 0.00 73 1016.6
20260903073036 60 0.0 1.0 0.00 0.00 0.00 72 1016.4
20260903071536 60 0.0 2.0 0.00 0.00 0.00 72 1016.7
20260903070016 60 0.0 2.0 0.00 0.00 0.00 72 1016.5
20260903064517 60 0.0 1.0 0.00 0.00 0.00 73 1016.6
20260903063017 60 0.0 1.0 0.00 0.00 0.00 74 1016.8
20260903061537 60 0.0 1.0 0.00 0.00 0.00 74 1017.0
20260903060017 60 0.0 1.0 0.00 0.00 0.00 74 1017.0
20260903054517 61 0.0 0.0 0.00 0.00 0.00 73 1017.1
20260903053017 61 0.0 0.0 0.00 0.00 0.00 73 1017.0
20260903051517 61 0.0 0.0 0.00 0.00 0.00 72 1017.2
20260903050017 61 0.0 0.0 0.00 0.00 0.00 71 1017.2
20260903044537 62 0.0 0.0 0.00 0.00 0.00 71 1017.2
20260903043017 62 0.0 0.0 0.00 0.00 0.00 70 1016.9
20260903041517 62 0.0 0.0 0.00 0.00 0.00 70 1016.7
20260903040017 62 0.0 0.0 0.00 0.00 0.00 69 1016.2
20260903034517 62 0.0 0.0 0.00 0.00 0.00 68 1016.1
20260903033017 63 0.0 0.0 0.00 0.00 0.00 67 1016.0
20260903031517 63 0.0 0.0 0.00 0.00 0.00 66 1016.0
20260903030017 64 0.0 0.0 0.00 0.00 0.00 65 1015.8
20260903024517 65 0.0 0.0 0.00 0.00 0.00 62 1015.9
20260903023017 65 0.0 2.0 0.00 0.00 0.00 61 1015.9
20260903021517 66 0.0 2.0 0.00 0.00 0.00 62 1016.1
20260903020017 66 0.0 1.0 0.00 0.00 0.00 62 1016.2
20260903014517 66 0.0 3.0 0.00 0.00 0.00 62 1016.2
20260903013037 67 0.0 3.0 0.00 0.00 0.00 61 1016.2
20260903011517 68 0.0 2.0 0.00 0.00 0.00 59 1016.4
20260903010017 68 113 1.0 4.0 0.00 0.00 0.00 58 1016.4
20260903004517 68 0.0 4.0 0.00 0.00 0.00 58 1016.4
20260903003017 68 0.0 4.0 0.00 0.00 0.00 58 1016.6
20260903001516 68 225 1.0 4.0 0.00 0.00 0.00 56 1016.6
20260903000016 68 135 1.0 3.0 0.00 0.00 0.00 59 1016.7
20260902234516 67 0.0 4.0 0.00 0.00 0.00 59 1016.6
20260902233017 68 0.0 3.0 0.00 0.00 0.00 60 1016.8
20260902231516 69 0.0 6.0 0.00 0.00 0.00 59 1016.9
20260902230017 69 135 1.0 4.0 0.00 0.00 0.00 59 1017.2
20260902224517 68 0.0 2.0 0.00 0.00 0.00 60 1017.3
20260902223017 70 0.0 3.0 0.00 0.00 0.00 58 1017.4
20260902221516 69 225 1.0 4.0 0.00 0.00 0.00 60 1017.4
20260902220016 68 135 1.0 5.0 0.00 0.00 0.00 61 1017.3
20260902214517 67 248 1.0 2.0 0.00 0.00 0.00 63 1017.4
20260902213016 67 225 1.0 4.0 0.00 0.00 0.00 63 1017.6
20260902211537 67 0.0 4.0 0.00 0.00 0.00 65 1017.6
20260902210016 65 0.0 2.0 0.00 0.00 0.00 68 1017.6
20260902204517 65 0.0 3.0 0.00 0.00 0.00 68 1017.6
20260902203016 65 0.0 2.0 0.00 0.00 0.00 68 1017.8
20260902201516 65 0.0 4.0 0.00 0.00 0.00 67 1017.9
20260902200017 65 0.0 3.0 0.00 0.00 0.00 67 1018.1
20260902194516 65 0.0 3.0 0.00 0.00 0.00 66 1018.1
20260902193016 66 0.0 2.0 0.00 0.00 0.00 65 1018.5
20260902191516 65 270 1.0 5.0 0.00 0.00 0.00 64 1018.5
20260902190016 65 0.0 2.0 0.00 0.00 0.00 64 1018.6
20260902184516 65 0.0 3.0 0.00 0.00 0.00 64 1018.7
20260902183036 65 135 1.0 3.0 0.00 0.00 0.00 63 1018.5
20260902181517 66 113 2.0 7.0 0.00 0.00 0.00 61 1018.5
20260902180016 67 113 2.0 6.0 0.00 0.00 0.00 59 1018.7
20260902174517 66 180 1.0 4.0 0.00 0.00 0.00 59 1018.6
20260902173016 65 113 1.0 6.0 0.00 0.00 0.00 60 1018.6
20260902171516 64 135 1.0 6.0 0.00 0.00 0.00 63 1018.4
20260902170016 64 113 2.0 5.0 0.00 0.00 0.00 61 1018.3
20260902164516 65 113 2.0 5.0 0.00 0.00 0.00 59 1018.1
20260902163016 63 135 1.0 5.0 0.00 0.00 0.00 60 1018.0
20260902161536 62 90 2.0 5.0 0.00 0.00 0.00 63 1017.9
20260902160016 60 113 2.0 4.0 0.00 0.00 0.00 67 1017.9
20260902154536 56 68 1.0 5.0 0.00 0.00 0.00 75 1017.7
20260902153017 55 90 1.0 3.0 0.00 0.00 0.00 77 1017.6
20260902151516 54 68 1.0 3.0 0.00 0.00 0.00 77 1017.7
20260902150016 54 68 1.0 4.0 0.00 0.00 0.00 78 1017.5
20260902144516 54 68 1.0 3.0 0.00 0.00 0.00 79 1017.3
20260902143016 53 68 1.0 4.0 0.00 0.00 0.00 80 1017.3
20260902141536 53 68 1.0 4.0 0.00 0.00 0.00 81 1017.2
20260902140036 52 0.0 4.0 0.00 0.00 0.00 83 1017.1
20260902134536 52 0.0 3.0 0.00 0.00 0.00 84 1017.0
20260902133016 52 0.0 2.0 0.00 0.00 0.00 84 1016.7
20260902131516 52 0.0 3.0 0.00 0.00 0.00 84 1016.6
20260902130056 52 0.0 3.0 0.00 0.00 0.00 84 1016.6
20260902124516 52 68 1.0 5.0 0.00 0.00 0.00 84 1016.7
20260902123016 52 90 2.0 7.0 0.00 0.00 0.00 85 1016.7
20260902121516 52 68 1.0 5.0 0.00 0.00 0.00 85 1016.8
20260902120016 52 68 1.0 3.0 0.00 0.00 0.00 86 1016.8
20260902114516 52 90 1.0 5.0 0.00 0.00 0.00 86 1016.8
20260902113016 52 68 1.0 5.0 0.00 0.00 0.00 86 1016.8
20260902111516 52 90 1.0 3.0 0.00 0.00 0.00 86 1016.8
20260902110036 52 0.0 4.0 0.00 0.00 0.00 85 1016.9